{"data":{"norad_id":52468,"intl_designator":"2022-049T","name":"STARLINK-3864","alt_names":[],"object_type":"PAYLOAD","status":"ACTIVE","operator":null,"country":"US","launch_date":"2022-05-06","launch_site_code":"AFETR","launch_vehicle":null,"mission":null,"orbit_class":"UNKNOWN","rcs_meters":null,"size_class":null,"mass_kg":null,"dimensions":null,"purposes":["comms"],"wikipedia_slug":null,"has_3d_model":false,"image_url":null,"decayed_at":null,"tle_current":{"epoch":"2026-05-25T02:11:30.560352Z","epoch_age_seconds":63345,"freshness":"FRESH","line1":"1 52468U 22049T   26145.09132593 -.00001176  00000+0 -55781-4 0  9998","line2":"2 52468  53.2147  76.1383 0001698  88.1259 271.9928 15.08843685223782","mean_motion":15.08843685,"eccentricity":0.0001698,"inclination_deg":53.2147,"raan_deg":76.1383,"arg_perigee_deg":88.1259,"mean_anomaly_deg":271.9928,"bstar":-5.5781e-5,"rev_number":22378,"period_min":95.437321593721,"perigee_km":538.55747123874,"apogee_km":540.90677959373,"semimajor_km":6917.8691254162,"source":"CELESTRAK","updated_at":"2026-05-25T13:38:17.152060Z"}}}